Garden City, KS

1:51 AM CDT on May 29, 2017 (GMT -0500)
Garden City Regional

Weather History for KGCK - August, 2013

Change the Weather History Date:

Thursday, August 8, 2013

  Actual Average Record
Temperature  
Mean Temperature 71 °F 78 °F  
Max Temperature 78 °F 91 °F 105 °F (1969)
Min Temperature 63 °F 65 °F 50 °F (1981)
Degree Days  
Heating Degree Days 0 0  
Month to date heating degree days 0 0  
Since 1 June heating degree days 12 17  
Since 1 July heating degree days 0 1  
Cooling Degree Days 6 13  
Month to date cooling degree days 95 104  
Year to date cooling degree days 1077 855  
Since 1 June cooling degree days 930 766  
Growing Degree Days 20 (Base 50)    
Moisture  
Dew Point 62 °F    
Average Humidity 77    
Maximum Humidity 93    
Minimum Humidity 60    
Precipitation  
Precipitation 0.02 in 0.09 in 1.16 in (1951)
Month to date precipitation 2.95 0.77  
Year to date precipitation 8.19 13.97  
Sea Level Pressure  
Sea Level Pressure 29.95 in    
Wind  
Wind Speed 11 mph (NE)    
Max Wind Speed 20 mph    
Max Gust Speed 23 mph    
Visibility 10 miles    
Events Rain    
T = Trace of Precipitation, MM = Missing Value Source: NWS Daily Summary

Daily Weather History Graph

Daily Weather History Graph

Search for Another Location

Airport or City:

Trip Planner

Search our weather history database for the weather conditions in past years. The results will help you decide how hot, cold, wet, or windy it might be!

Date:

Astronomy

Aug. 08, 2013 Rise Set
Actual Time 6:52 AM CDT 8:44 PM CDT
Civil Twilight 6:23 AM CDT 9:12 PM CDT
Nautical Twilight 5:49 AM CDT 9:47 PM CDT
Astronomical Twilight 5:11 AM CDT 10:24 PM CDT
Moon 8:38 AM CDT (8/8) 9:27 PM CDT (8/8)
Length of Visible Light 14h 48m
Length of Day
13h 51m
Waxing Crescent, 3% of the Moon is Illuminated
Aug 8
Waxing Crescent
Aug 14
First Quarter
Aug 20
Full
Aug 28
Last Quarter
Sep 5
New

Hourly Weather History & Observations

Time (CDT) Temp. Dew Point Humidity Pressure Visibility Wind Dir Wind Speed Gust Speed Precip Events Conditions
12:31 AM 64.4 °F 62.6 °F 94% 30.00 in 10.0 mi NNE 13.8 mph - 0.10 in Rain Light Rain
12:54 AM 64.9 °F 62.1 °F 90% 29.90 in 10.0 mi NNE 13.8 mph - 0.10 in   Partly Cloudy
1:54 AM 64.0 °F 62.1 °F 93% 29.86 in 10.0 mi East 10.4 mph - 0.01 in Rain Light Rain
2:54 AM 64.9 °F 63.0 °F 93% 29.90 in 10.0 mi WNW 6.9 mph - 0.01 in   Mostly Cloudy
3:13 AM 64.4 °F 62.6 °F 94% 29.97 in 10.0 mi NNW 6.9 mph - N/A   Overcast
3:38 AM 64.4 °F 62.6 °F 94% 29.96 in 10.0 mi NNW 5.8 mph - N/A   Partly Cloudy
3:54 AM 64.9 °F 62.1 °F 90% 29.87 in 10.0 mi WNW 5.8 mph - N/A   Clear
4:30 AM 64.4 °F 62.6 °F 94% 29.95 in 10.0 mi NNW 5.8 mph - N/A   Mostly Cloudy
4:54 AM 64.9 °F 63.0 °F 93% 29.85 in 10.0 mi North 8.1 mph - N/A   Overcast
5:23 AM 64.4 °F 62.6 °F 94% 29.95 in 10.0 mi North 9.2 mph - N/A   Partly Cloudy
5:52 AM 64.4 °F 62.6 °F 94% 29.96 in 10.0 mi North 10.4 mph - N/A   Overcast
5:54 AM 64.9 °F 63.0 °F 93% 29.87 in 10.0 mi North 9.2 mph - N/A   Overcast
6:54 AM 66.0 °F 64.0 °F 93% 29.89 in 10.0 mi NNE 3.5 mph - N/A   Overcast
7:08 AM 66.2 °F 64.4 °F 94% 29.98 in 10.0 mi NNE 5.8 mph - N/A   Scattered Clouds
7:34 AM 66.2 °F 64.4 °F 94% 29.99 in 10.0 mi NNE 5.8 mph - N/A   Mostly Cloudy
7:54 AM 66.9 °F 64.9 °F 93% 29.90 in 9.0 mi ENE 11.5 mph - N/A   Overcast
8:07 AM 66.2 °F 64.4 °F 94% 30.00 in 10.0 mi ENE 12.7 mph 20.7 mph N/A   Overcast
8:29 AM 64.4 °F 62.6 °F 94% 30.00 in 10.0 mi ENE 13.8 mph - N/A   Overcast
8:46 AM 64.4 °F 62.6 °F 94% 30.00 in 10.0 mi ENE 10.4 mph - N/A   Overcast
8:54 AM 64.0 °F 62.1 °F 93% 29.92 in 10.0 mi ENE 15.0 mph - N/A   Overcast
9:54 AM 64.9 °F 61.0 °F 87% 29.94 in 10.0 mi East 15.0 mph - N/A   Overcast
10:01 AM 64.4 °F 60.8 °F 88% 30.02 in 10.0 mi East 11.5 mph 21.9 mph N/A   Overcast
10:54 AM 69.1 °F 60.1 °F 73% 29.96 in 10.0 mi ESE 10.4 mph - N/A   Overcast
11:54 AM 70.0 °F 61.0 °F 73% 29.97 in 10.0 mi NE 8.1 mph - N/A   Overcast
12:54 PM 73.0 °F 62.1 °F 68% 29.96 in 10.0 mi ENE 10.4 mph - N/A   Partly Cloudy
1:54 PM 75.0 °F 63.0 °F 66% 29.96 in 10.0 mi NE 9.2 mph - N/A   Overcast
2:54 PM 77.0 °F 62.1 °F 60% 29.95 in 10.0 mi North 13.8 mph - N/A   Mostly Cloudy
3:54 PM 75.9 °F 62.1 °F 62% 29.94 in 10.0 mi NNE 9.2 mph - N/A   Mostly Cloudy
4:54 PM 75.9 °F 62.1 °F 62% 29.94 in 10.0 mi NE 13.8 mph - N/A   Overcast
5:54 PM 75.0 °F 62.1 °F 64% 29.93 in 10.0 mi NE 12.7 mph - N/A   Overcast
6:54 PM 73.9 °F 62.1 °F 66% 29.93 in 10.0 mi NE 13.8 mph - N/A   Mostly Cloudy
7:54 PM 72.0 °F 63.0 °F 73% 29.95 in 10.0 mi NE 13.8 mph - N/A   Clear
8:54 PM 70.0 °F 64.0 °F 81% 29.97 in 10.0 mi ENE 9.2 mph - N/A   Clear
9:54 PM 68.0 °F 62.1 °F 81% 29.98 in 10.0 mi ENE 11.5 mph - N/A   Partly Cloudy
10:54 PM 66.0 °F 61.0 °F 84% 30.01 in 10.0 mi ENE 11.5 mph - N/A   Mostly Cloudy
11:54 PM 64.0 °F 60.1 °F 87% 30.01 in 10.0 mi ENE 11.5 mph - N/A   Scattered Clouds